Simultaneous Nadir Overpasses (SNOs) Predictions

Prediction of SNOs between AQUA and METOP-C Satellite Orbit:

Table of predicted SNOs for the next 14.0 days since TLE Epoch: 5/24/2025
Index Date (AQUA) Time (AQUA) Lat,Lon (AQUA) SZA (AQUA ) Date (METOP-C) Time (METOP-C) Lat,Lon (METOP-C) SZA (METOP-C ) Distance(km) Time Diff (sec)
1 05/26/2025 02:15:01 76.56, 148.70 55.36 05/26/2025 02:14:46 76.58, 148.72 55.38 2.05 15
2 05/26/2025 03:04:19 -76.59, -43.74 124.62 05/26/2025 03:05:26 -76.63, -43.75 124.58 4.13 67
3 05/28/2025 14:14:01 -76.56, 149.03 125.06 05/28/2025 14:13:04 -76.55, 149.03 125.07 1.05 57
4 05/28/2025 15:03:21 76.61, -43.49 54.99 05/28/2025 15:03:43 76.61, -43.40 54.99 2.53 22
5 05/31/2025 03:02:20 -76.58, -43.08 125.41 05/31/2025 03:02:01 -76.57, -43.10 125.42 1.38 19
6 05/31/2025 03:51:40 76.65, 124.37 54.65 05/31/2025 03:52:40 76.63, 124.46 54.64 2.71 60
7 06/02/2025 15:01:20 76.58, -42.74 54.25 06/02/2025 15:00:17 76.58, -42.63 54.25 2.90 63
8 06/02/2025 15:50:38 -76.60, 124.87 125.74 06/02/2025 15:50:58 -76.60, 124.75 125.74 3.03 20
9 06/05/2025 03:49:37 76.58, 125.25 53.96 06/05/2025 03:49:14 76.60, 125.19 53.97 2.10 23



Historial Predications of SNOs between AQUA and METOP-C
